Location: G�yn�k
(36.6721°N, 30.5542°E)
Time: 09:18:59
(UTC+00:00)

USA 215 - Pass Details

Date: 07 June 2020
Orbit: 1098 x 1110 km, 123.0° (Epoch: 21 June)

Event Time Altitude Azimuth Distance (km) Brightness Sun altitude
Exits shadow 00:28:06 34° 228° (SW) 1,724 3.7 -20.7°
Maximum altitude 00:28:26 35° 234° (SW) 1,719 3.8 -20.6°
Drops below altitude 10° 00:34:18 10° 298° (WNW) 2,968 5.4 -19.9°
Sets 00:37:04 0° 307° (NW) 3,927 6.1 -19.5°
